Zurück zum Katalog

NIMBUS 2 DEB

AktivLEO
NORAD 25612·DEBRIS·🇺🇸 United States

Gestartet May 15, 1966 von Vandenberg Space Force Base

Loading…

Nächste Überflüge (nächste 24 Stunden)

TLE

AktuellSource: Space-Track

Epoche: Sep 13, 2026, 06:07 UTC

1 25612U 66040E   26256.25506961  .00002709  00000-0  26773-2 0  9992
2 25612 100.4893 175.9070 0034176 294.0835 219.5400 13.79352253447718

Verfolge NIMBUS 2 DEB in Echtzeit mit AllMySat

Download on the App Store